Yakima, WA
on Monday, January 28, 2013

Monday
Previous Day Next Day
Daily Summary
 ActualAverageRecord
Temperature
Mean Temperature °F 33°F  
Max Temperature 41°F 42°F 57°F (1974)
Min Temperature 24°F 25°F -12°F (1980)
Degree Days
Heating Degree Days 32 32  
Month to date heating degree days 988 962  
Since 1 July heating degree days 3202 3625  
Cooling Degree Days 0 0  
Month to date cooling degree days 0 0  
Year to date cooling degree days 0 0  
Moisture
Dew Point 25°F   
Average Humidity 76    
Maximum Humidity 88    
Minimum Humidity 64    
Precipitation
Precipitation T in 0.03 in 0.56 in (1995)
Month to date precipitation 0.10 1.05  
Year to date precipitation 0.10 1.05  
Snow
Snow 0.00 in 0.20 in 2.60 in (1956)
Month to date snowfall 1.1 5.0  
Year to date snowfall 1.1 5.0  
Since 1 July snowfall 15.3 18.0  
Snow Depth 0.00 in   
Wind
Wind Speed 2 mph   
Max Wind Speed 8 mph   
Max Gust Speed 18 mph   
Visibility 9 miles   
Events     

Key: T is trace of precipitation, MM is missing value
Source: NWS Daily Summary
Time(PST)TemperatureDew PointHumidity Pressure Visibility Wind DirectionWind SpeedGust SpeedPrecipitationEvents Conditions
12:53 AM 25.0°F 21.0°F 85% 30.00 in 8.0 miles WNW 5.8 mph - N/A   Clear
1:53 AM 26.1°F 21.9°F 84% 29.99 in 10.0 miles Calm Calm - N/A   Mostly Cloudy
2:53 AM 27.0°F 21.9°F 81% 29.99 in 9.0 miles Calm Calm - N/A   Overcast
3:53 AM 26.1°F 21.9°F 84% 30.01 in 9.0 miles NNW 3.5 mph - N/A   Partly Cloudy
4:53 AM 26.1°F 21.0°F 81% 30.00 in 8.0 miles West 4.6 mph - N/A   Clear
5:53 AM 26.1°F 21.9°F 84% 30.00 in 9.0 miles Calm Calm - N/A   Clear
6:53 AM 24.1°F 21.0°F 88% 30.02 in 9.0 miles Calm Calm - N/A   Clear
7:53 AM 25.0°F 21.0°F 85% 30.03 in 8.0 miles WNW 3.5 mph - N/A   Partly Cloudy
8:53 AM 27.0°F 23.0°F 85% 30.03 in 10.0 miles Calm Calm - N/A   Partly Cloudy
9:53 AM 30.0°F 25.0°F 82% 30.03 in 10.0 miles Calm Calm - N/A   Partly Cloudy
10:53 AM 32.0°F 27.0°F 82% 30.02 in 10.0 miles Calm Calm - N/A   Partly Cloudy
11:53 AM 35.1°F 28.0°F 76% 30.01 in 10.0 miles Calm Calm - N/A   Partly Cloudy
12:53 PM 37.0°F 28.0°F 70% 29.98 in 10.0 miles Calm Calm - N/A   Scattered Clouds
1:53 PM 39.0°F 28.0°F 65% 29.96 in 10.0 miles Calm Calm - N/A   Mostly Cloudy
2:53 PM 39.9°F 28.9°F 65% 29.95 in 7.0 miles Calm Calm - N/A   Overcast
3:53 PM 39.0°F 28.9°F 67% 29.94 in 10.0 miles WNW 3.5 mph - N/A   Partly Cloudy
4:53 PM 34.0°F 27.0°F 75% 29.94 in 10.0 miles WSW 4.6 mph - N/A   Mostly Cloudy
5:53 PM 32.0°F 26.1°F 79% 29.94 in 9.0 miles West 5.8 mph - N/A   Clear
6:53 PM 30.9°F 26.1°F 82% 29.96 in 8.0 miles WNW 6.9 mph - N/A   Clear
7:53 PM 30.0°F 25.0°F 82% 29.94 in 7.0 miles WSW 4.6 mph - N/A   Clear
8:53 PM 30.0°F 25.0°F 82% 29.94 in 8.0 miles Calm Calm - N/A   Clear
9:53 PM 28.0°F 24.1°F 85% 29.95 in 7.0 miles SW 4.6 mph - 0.00 in   Clear
10:53 PM 27.0°F 23.0°F 85% 29.96 in 6.0 miles Calm Calm - N/A   Scattered Clouds
11:53 PM 28.9°F 25.0°F 85% 29.98 in 6.0 miles Variable 5.8 mph - N/A   Mostly Cloudy
Moon Phase
Jan. 28 Feb. 03 Feb. 10 Feb. 17 Feb. 25
Sunrise:07:30 AM (PST) Moon Rise:07:11 PM (PST)1/28
Sunset:05:00 PM (PST) Moon Set:07:49 AM (PST)1/28

Copyright © 2014 The Weather Underground, Inc.